Regional Weather Roundup
Issued by NWS

Home | Current Version | Previous Version | Text Only | Print | Product List | Glossary On
Versions: 1 2 3 4 5 6 7 8 9 10 11 12 13 14 15 16 17 18 19 20 21 22 23 24 25 26 27 28
000
ASUS45 KBOU 231910
RWRCO

WEATHER ROUNDUP FOR COLORADO
NATIONAL WEATHER SERVICE DENVER/BOULDER CO
100 PM MDT WED MAY 23 2018

NOTE: "FAIR" INDICATES FEW OR NO CLOUDS BELOW 12000 FEET WITH NO
SIGNIFICANT WEATHER AND/OR OBSTRUCTIONS TO VISIBILITY.

COZ001>005-013-030-031-232000-
...NORTHWEST COLORADO...

CITY           SKY/WX    TMP DP  RH WIND       PRES   REMARKS
CRAIG          FAIR      70  44  39 W13       30.05S
HAYDEN         FAIR      66  40  38 VRB6      30.07F
MEEKER         FAIR      71  29  21 S17       30.05S
RANGELY        MOCLDY    65  45  49 W8        30.03S
RABBIT EARS PA CLOUDY    45  28  53 SW10G26   30.29R
STEAMBOAT SPGS PTSUNNY   64  35  34 SE12      30.08S
WALDEN         FAIR      64  27  24 SW20G32   30.16R
$$

COZ006>008-011-232000-
...WEST CENTRAL VALLEYS...

CITY           SKY/WX    TMP DP  RH WIND       PRES   REMARKS
GRAND JUNCTION FAIR      74  41  30 NW14G21   30.00F
MONTROSE       FAIR      72  27  18 VRB3      30.04F
EAGLE          FAIR      73  22  14 W13G29    30.06F
RIFLE          FAIR      76  30  18 W12G23    30.01F
DELTA          FAIR      81  26  13 SW9G23    30.02F
NUCLA          FAIR      73  19  13 S12G18    30.11S
$$

COZ017>023-064>068-232000-
...SOUTHWEST COLORADO...

CITY           SKY/WX    TMP DP  RH WIND       PRES   REMARKS
DURANGO        FAIR      70  24  17 MISG      30.14F
CORTEZ         FAIR      74  19  12 SW20      30.10F
PAGOSA SPRINGS FAIR      69  14  12 W9G26     30.19F
TELLURIDE      FAIR      60  21  22 S15G25    30.25F
WOLF CREEK PAS FAIR      45  21  39 SW18G30   30.45F
$$

COZ009-010-012-014-032>034-037-058>063-232000-
...CENTRAL COLORADO...

CITY           SKY/WX    TMP DP  RH WIND       PRES   REMARKS
ASPEN          FAIR      67  23  19 SW8G20    30.13S
BUENA VISTA    PTSUNNY   68  24  19 SE16G23   30.15F
COPPER MTN     PTSUNNY   46  18  31 S8G20     30.39R
BERTHOUD PASS  CLOUDY    37  28  70 W10G18    30.41S THUNDER
COTTONWOOD PAS PTSUNNY   61  16  17 W10G21    30.27F
GUNNISON       FAIR      66  21  18 VRB3      30.14F
GRANBY         FAIR      62  34  34 CALM      30.17F
KREMMLING      FAIR      66  45  45 CALM      30.13F
LEADVILLE      PTSUNNY   59  17  19 S22G35    30.24F
MONARCH PASS   CLOUDY    46  14  27 MISG      30.48S
SALIDA         PTSUNNY   74  21  13 S14G22    30.19F
SUNLIGHT       CLOUDY    50  27  40 S10G25    30.33F
WILKERSON PASS PTSUNNY   46  21  36 SW14G22   30.38S
$$

COZ069>075-232000-
...SAN LUIS VALLEY/SANGRE DE CRISTO MOUNTAINS...

CITY           SKY/WX    TMP DP  RH WIND       PRES   REMARKS
ALAMOSA          N/A     73  19  13 S15G29    30.14F
DEL NORTE      FAIR      68  29  23 SE8       30.17F
LA VETA PASS   FAIR      63  21  20 S18G43    30.43F
SAGUACHE       NOT AVBL
$$

COZ035-036-038>040-232000-
...NORTHERN COLORADO FRONT RANGE...

CITY           SKY/WX    TMP DP  RH WIND       PRES   REMARKS
DENVER INTL AP PTSUNNY   72  40  31 NW5G17    29.99F
AURORA         PTSUNNY   78  45  30 NW13G23   30.00S
FRONT RANGE AP PTSUNNY   75  46  35 E10G21    30.01F
ERIE MUNI ARPT FAIR      70  50  48 N8        30.05S
BOULDER MUN AP LGT RAIN  64  57  77 NW6       30.00F
CENTENNIAL     PTSUNNY   80  33  18 SW20G26   30.01S
BROOMFIELD     PTSUNNY   72  46  40 W14G26    30.02F
FORT COLLINS   FAIR      72  55  55 S9        30.01F
LONGMONT       LGT RAIN  69  50  52 SW6       30.02F
$$

COZ041-046-047-076>085-087-088-232000-
...PIKES PEAK/PALMER DIVIDE AND SOUTHERN FOOTHILLS...

CITY           SKY/WX    TMP DP  RH WIND       PRES   REMARKS
COLO. SPRINGS  FAIR      79  34  19 S21G32    30.06F
A. F. ACADEMY  PTSUNNY   75  31  20 SE20      30.05F
SCHRIEVER AFB  NOT AVBL
CHEYENNE MTN   FAIR      71  31  22 SE21G28   30.04F
ELLICOTT         N/A    N/A N/A N/A SW22G28   30.06F
FALCON         NOT AVBL
FORT CARSON    FAIR      79  32  18 SW15G24   30.03F
LIMON          FAIR      78  44  29 S22G35    30.02F
MONUMENT HILL  FAIR      70  30  23 S17G26    30.11S
CANON CITY     FAIR      81  43  26 E9        30.01F
WALSENBURG     FAIR      77  41  27 S16G22    30.06F
TRINIDAD       FAIR      76  50  40 S22G39    30.09F
$$

COZ042>045-048>051-090-091-232000-
...NORTHEAST COLORADO...

CITY           SKY/WX    TMP DP  RH WIND       PRES   REMARKS
GREELEY ARPT   FAIR      73  53  49 N6        29.99F
AKRON          FAIR      76  53  44 S10       29.99F
BURLINGTON     FAIR      82  54  37 S22G35    30.00F
WRAY           FAIR      81  52  36 S15G21    29.96F
YUMA           FAIR      79  18  10 SW14G21   29.97F
STERLING       FAIR      77  55  47 S7G20     29.95F
HOLYOKE        FAIR      82  54  36 SW18G26   29.96F
FORT MORGAN    FAIR      77  50  38 SE10      29.98F
$$

COZ086-089-092>099-232000-
...SOUTHEAST COLORADO...

CITY           SKY/WX    TMP DP  RH WIND       PRES   REMARKS
PUEBLO         FAIR      83  34  17 W9        29.96F
LA JUNTA       FAIR      87  46  24 SW29G40   29.98F
LAMAR          FAIR      87  49  26 S23G35    29.97F
SPRINGFIELD      N/A     81  51  35 S26G37    30.06F
$$




USA.gov is the U.S. government's official web portal to all federal, state and local government web resources and services.